contact:dominique.lefevre@mio.osupytheas.fr, maurice.libes@osupytheas.fr, didier.mallarino@osupytheas.fr
Project:EMSO http://www.emso-fr.org/EMSO-France
Depth: 2436.0 m
Title:EMSO Ligure Ouest : Data MII capteur CSTAR
DateTime,Latitude,Longitude,Instrument_Serial,Reference_Counts,Signal_Counts,Corrected_Signal_raw_counts,Calculated_Beam_c_inverse_meters,Internal_thermistor_counts
DateTime,Latitude,Longitude,Instrument_Serial,Reference_Counts,Signal_Counts,Corrected_Signal_raw_counts,Calculated_Beam_c_inverse_meters,Internal_thermistor_counts
2021-06-24T00:00:44,42.805,6.029,CST-1368DR,5455,7601,14957,0.172,551
2021-06-24T00:03:46,42.805,6.029,CST-1368DR,5455,7603,14960,0.172,551
2021-06-24T00:06:48,42.805,6.029,CST-1368DR,5456,7604,14959,0.172,551
2021-06-24T00:09:49,42.805,6.029,CST-1368DR,5455,7601,14956,0.173,551
2021-06-24T00:12:51,42.805,6.029,CST-1368DR,5455,7602,14958,0.172,551
2021-06-24T00:15:52,42.805,6.029,CST-1368DR,5455,7602,14958,0.172,551
2021-06-24T00:18:54,42.805,6.029,CST-1368DR,5455,7603,14960,0.172,551
2021-06-24T00:21:55,42.805,6.029,CST-1368DR,5455,7601,14957,0.172,551
2021-06-24T00:24:57,42.805,6.029,CST-1368DR,5455,7602,14959,0.172,551
2021-06-24T00:27:59,42.805,6.029,CST-1368DR,5455,7603,14961,0.171,551
2021-06-24T00:31:00,42.805,6.029,CST-1368DR,5455,7603,14961,0.171,551
2021-06-24T00:34:02,42.805,6.029,CST-1368DR,5455,7602,14958,0.172,551
2021-06-24T00:37:03,42.805,6.029,CST-1368DR,5455,7603,14961,0.171,551
2021-06-24T00:40:05,42.805,6.029,CST-1368DR,5455,7604,14962,0.171,551
2021-06-24T00:43:06,42.805,6.029,CST-1368DR,5455,7603,14961,0.171,551
2021-06-24T00:46:08,42.805,6.029,CST-1368DR,5455,7602,14959,0.172,551
2021-06-24T00:49:10,42.805,6.029,CST-1368DR,5455,7603,14960,0.172,551
2021-06-24T00:52:11,42.805,6.029,CST-1368DR,5455,7603,14961,0.171,551
2021-06-24T00:55:13,42.805,6.029,CST-1368DR,5455,7603,14961,0.171,551
2021-06-24T00:58:14,42.805,6.029,CST-1368DR,5455,7602,14959,0.172,551
2021-06-24T01:01:16,42.805,6.029,CST-1368DR,5455,7602,14959,0.172,551
2021-06-24T01:04:18,42.805,6.029,CST-1368DR,5455,7603,14960,0.172,551
2021-06-24T01:07:19,42.805,6.029,CST-1368DR,5455,7602,14959,0.172,551
2021-06-24T01:10:21,42.805,6.029,CST-1368DR,5455,7602,14959,0.172,551
2021-06-24T01:13:22,42.805,6.029,CST-1368DR,5455,7603,14961,0.171,550
2021-06-24T01:16:24,42.805,6.029,CST-1368DR,5455,7603,14960,0.172,551
2021-06-24T01:19:25,42.805,6.029,CST-1368DR,5455,7604,14962,0.171,551
2021-06-24T01:22:27,42.805,6.029,CST-1368DR,5455,7604,14962,0.171,551
2021-06-24T01:25:29,42.805,6.029,CST-1368DR,5455,7604,14962,0.171,551
2021-06-24T01:28:30,42.805,6.029,CST-1368DR,5455,7603,14960,0.172,551
2021-06-24T01:31:32,42.805,6.029,CST-1368DR,5455,7603,14961,0.171,551
2021-06-24T01:34:33,42.805,6.029,CST-1368DR,5455,7602,14959,0.172,551
2021-06-24T01:37:35,42.805,6.029,CST-1368DR,5455,7603,14961,0.171,551
2021-06-24T01:40:37,42.805,6.029,CST-1368DR,5455,7603,14960,0.172,551
2021-06-24T01:43:38,42.805,6.029,CST-1368DR,5455,7603,14960,0.172,551
2021-06-24T01:46:40,42.805,6.029,CST-1368DR,5455,7603,14961,0.171,551
2021-06-24T01:49:41,42.805,6.029,CST-1368DR,5455,7604,14962,0.171,551
2021-06-24T01:52:43,42.805,6.029,CST-1368DR,5455,7603,14960,0.172,551
2021-06-24T01:55:44,42.805,6.029,CST-1368DR,5455,7604,14962,0.171,551
2021-06-24T01:58:46,42.805,6.029,CST-1368DR,5455,7604,14962,0.171,551
2021-06-24T02:01:48,42.805,6.029,CST-1368DR,5455,7603,14960,0.172,551
2021-06-24T02:04:49,42.805,6.029,CST-1368DR,5455,7604,14962,0.171,551
2021-06-24T02:07:51,42.805,6.029,CST-1368DR,5455,7601,14957,0.172,551
2021-06-24T02:10:52,42.805,6.029,CST-1368DR,5455,7604,14962,0.171,551
2021-06-24T02:13:54,42.805,6.029,CST-1368DR,5455,7603,14960,0.172,551
2021-06-24T02:16:55,42.805,6.029,CST-1368DR,5455,7602,14959,0.172,551
2021-06-24T02:19:57,42.805,6.029,CST-1368DR,5455,7603,14960,0.172,551
2021-06-24T02:22:59,42.805,6.029,CST-1368DR,5455,7602,14958,0.172,551
2021-06-24T02:26:00,42.805,6.029,CST-1368DR,5455,7603,14961,0.171,551
2021-06-24T02:29:02,42.805,6.029,CST-1368DR,5455,7604,14962,0.171,550
2021-06-24T02:32:03,42.805,6.029,CST-1368DR,5455,7603,14960,0.172,551
2021-06-24T02:35:05,42.805,6.029,CST-1368DR,5455,7603,14961,0.171,551
2021-06-24T02:38:07,42.805,6.029,CST-1368DR,5455,7604,14962,0.171,551
2021-06-24T02:41:08,42.805,6.029,CST-1368DR,5455,7604,14962,0.171,551
2021-06-24T02:44:10,42.805,6.029,CST-1368DR,5455,7603,14960,0.172,551
2021-06-24T02:47:11,42.805,6.029,CST-1368DR,5455,7603,14961,0.171,551
2021-06-24T02:50:13,42.805,6.029,CST-1368DR,5455,7604,14962,0.171,551
2021-06-24T02:53:14,42.805,6.029,CST-1368DR,5455,7603,14960,0.172,551
2021-06-24T02:56:16,42.805,6.029,CST-1368DR,5455,7603,14961,0.171,551
2021-06-24T02:59:18,42.805,6.029,CST-1368DR,5455,7604,14962,0.171,551
2021-06-24T03:02:19,42.805,6.029,CST-1368DR,5455,7604,14963,0.171,551
2021-06-24T03:05:21,42.805,6.029,CST-1368DR,5455,7603,14961,0.171,551
2021-06-24T03:08:22,42.805,6.029,CST-1368DR,5455,7603,14960,0.172,551
2021-06-24T03:15:07,42.805,6.029,CST-1368DR,5455,7604,14963,0.171,551
2021-06-24T03:18:08,42.805,6.029,CST-1368DR,5455,7604,14962,0.171,551
2021-06-24T03:21:10,42.805,6.029,CST-1368DR,5455,7604,14962,0.171,551
2021-06-24T03:24:11,42.805,6.029,CST-1368DR,5455,7604,14962,0.171,551
2021-06-24T03:27:13,42.805,6.029,CST-1368DR,5455,7604,14963,0.171,551
2021-06-24T03:30:14,42.805,6.029,CST-1368DR,5455,7604,14963,0.171,551
2021-06-24T03:33:16,42.805,6.029,CST-1368DR,5455,7604,14963,0.171,551
2021-06-24T03:36:18,42.805,6.029,CST-1368DR,5455,7601,14957,0.172,551
2021-06-24T03:39:19,42.805,6.029,CST-1368DR,5455,7603,14960,0.172,551
2021-06-24T03:42:21,42.805,6.029,CST-1368DR,5455,7604,14962,0.171,551
2021-06-24T03:45:22,42.805,6.029,CST-1368DR,5455,7603,14961,0.171,551
2021-06-24T03:48:24,42.805,6.029,CST-1368DR,5455,7603,14961,0.171,551
2021-06-24T03:51:25,42.805,6.029,CST-1368DR,5455,7604,14962,0.171,551
2021-06-24T03:54:27,42.805,6.029,CST-1368DR,5455,7604,14962,0.171,551
2021-06-24T03:57:29,42.805,6.029,CST-1368DR,5455,7604,14963,0.171,551
2021-06-24T04:00:30,42.805,6.029,CST-1368DR,5455,7601,14956,0.173,551
2021-06-24T04:03:32,42.805,6.029,CST-1368DR,5455,7602,14958,0.172,551
2021-06-24T04:06:33,42.805,6.029,CST-1368DR,5455,7604,14962,0.171,551
2021-06-24T04:09:35,42.805,6.029,CST-1368DR,5455,7603,14960,0.172,551
2021-06-24T04:12:37,42.805,6.029,CST-1368DR,5455,7604,14962,0.171,551
2021-06-24T04:15:38,42.805,6.029,CST-1368DR,5455,7603,14960,0.172,551
2021-06-24T04:18:40,42.805,6.029,CST-1368DR,5455,7603,14961,0.171,551
2021-06-24T04:21:41,42.805,6.029,CST-1368DR,5455,7603,14960,0.172,551
2021-06-24T04:24:43,42.805,6.029,CST-1368DR,5455,7604,14962,0.171,551
2021-06-24T04:27:44,42.805,6.029,CST-1368DR,5455,7604,14962,0.171,550
2021-06-24T04:30:46,42.805,6.029,CST-1368DR,5455,7603,14960,0.172,551
2021-06-24T04:33:48,42.805,6.029,CST-1368DR,5455,7603,14961,0.171,551
2021-06-24T04:36:49,42.805,6.029,CST-1368DR,5455,7603,14960,0.172,551
2021-06-24T04:39:51,42.805,6.029,CST-1368DR,5455,7603,14960,0.172,551
2021-06-24T04:42:52,42.805,6.029,CST-1368DR,5455,7602,14959,0.172,551
2021-06-24T04:45:54,42.805,6.029,CST-1368DR,5455,7602,14958,0.172,551
2021-06-24T04:48:55,42.805,6.029,CST-1368DR,5455,7603,14961,0.171,551
2021-06-24T04:51:57,42.805,6.029,CST-1368DR,5455,7602,14959,0.172,551
2021-06-24T04:54:59,42.805,6.029,CST-1368DR,5455,7601,14957,0.172,551
2021-06-24T04:58:00,42.805,6.029,CST-1368DR,5455,7603,14960,0.172,551
2021-06-24T05:01:02,42.805,6.029,CST-1368DR,5455,7602,14959,0.172,551
2021-06-24T05:04:03,42.805,6.029,CST-1368DR,5455,7602,14959,0.172,551
2021-06-24T05:07:05,42.805,6.029,CST-1368DR,5455,7603,14960,0.172,551
2021-06-24T05:10:07,42.805,6.029,CST-1368DR,5455,7603,14961,0.171,551
2021-06-24T05:13:08,42.805,6.029,CST-1368DR,5455,7602,14959,0.172,551
2021-06-24T05:16:10,42.805,6.029,CST-1368DR,5455,7603,14960,0.172,551
2021-06-24T05:19:11,42.805,6.029,CST-1368DR,5455,7603,14960,0.172,551
2021-06-24T05:22:13,42.805,6.029,CST-1368DR,5455,7602,14959,0.172,551
2021-06-24T05:25:14,42.805,6.029,CST-1368DR,5455,7603,14961,0.171,551
2021-06-24T05:28:16,42.805,6.029,CST-1368DR,5455,7602,14959,0.172,551
2021-06-24T05:31:18,42.805,6.029,CST-1368DR,5455,7602,14959,0.172,551
2021-06-24T05:34:19,42.805,6.029,CST-1368DR,5454,7602,14961,0.171,551
2021-06-24T05:37:21,42.805,6.029,CST-1368DR,5455,7603,14960,0.172,551
2021-06-24T05:40:22,42.805,6.029,CST-1368DR,5455,7602,14958,0.172,551
2021-06-24T05:43:24,42.805,6.029,CST-1368DR,5455,7602,14959,0.172,551
2021-06-24T05:46:26,42.805,6.029,CST-1368DR,5455,7601,14956,0.173,551
2021-06-24T05:49:27,42.805,6.029,CST-1368DR,5455,7602,14959,0.172,551
2021-06-24T05:52:29,42.805,6.029,CST-1368DR,5455,7600,14955,0.173,551
2021-06-24T05:55:30,42.805,6.029,CST-1368DR,5455,7602,14958,0.172,551
2021-06-24T05:58:32,42.805,6.029,CST-1368DR,5455,7602,14959,0.172,551
2021-06-24T06:01:33,42.805,6.029,CST-1368DR,5455,7601,14956,0.173,551
2021-06-24T06:04:35,42.805,6.029,CST-1368DR,5455,7602,14959,0.172,551
2021-06-24T06:07:37,42.805,6.029,CST-1368DR,5455,7603,14960,0.172,551
2021-06-24T06:10:38,42.805,6.029,CST-1368DR,5455,7603,14960,0.172,551
2021-06-24T06:13:40,42.805,6.029,CST-1368DR,5455,7602,14959,0.172,551
2021-06-24T06:16:41,42.805,6.029,CST-1368DR,5454,7602,14960,0.172,551
2021-06-24T06:19:43,42.805,6.029,CST-1368DR,5454,7602,14961,0.171,551
2021-06-24T06:22:44,42.805,6.029,CST-1368DR,5454,7601,14959,0.172,551
2021-06-24T06:25:46,42.805,6.029,CST-1368DR,5454,7601,14960,0.172,551
2021-06-24T06:28:48,42.805,6.029,CST-1368DR,5454,7601,14959,0.172,551
2021-06-24T06:31:49,42.805,6.029,CST-1368DR,5454,7602,14960,0.172,551
2021-06-24T06:34:51,42.805,6.029,CST-1368DR,5454,7601,14959,0.172,551
2021-06-24T06:37:52,42.805,6.029,CST-1368DR,5454,7602,14961,0.171,551
2021-06-24T06:40:54,42.805,6.029,CST-1368DR,5454,7601,14960,0.172,551
2021-06-24T06:43:56,42.805,6.029,CST-1368DR,5454,7601,14959,0.172,551
2021-06-24T06:46:57,42.805,6.029,CST-1368DR,5454,7601,14960,0.172,551
2021-06-24T06:49:59,42.805,6.029,CST-1368DR,5454,7601,14960,0.172,551
2021-06-24T06:53:00,42.805,6.029,CST-1368DR,5454,7602,14961,0.171,551
2021-06-24T06:56:02,42.805,6.029,CST-1368DR,5454,7602,14961,0.171,551
2021-06-24T06:59:03,42.805,6.029,CST-1368DR,5454,7599,14955,0.173,551
2021-06-24T07:02:05,42.805,6.029,CST-1368DR,5454,7602,14960,0.172,551
2021-06-24T07:05:07,42.805,6.029,CST-1368DR,5454,7602,14960,0.172,551
2021-06-24T07:08:08,42.805,6.029,CST-1368DR,5454,7601,14960,0.172,551
2021-06-24T07:11:10,42.805,6.029,CST-1368DR,5454,7602,14960,0.172,551
2021-06-24T07:14:11,42.805,6.029,CST-1368DR,5454,7602,14961,0.171,551
2021-06-24T07:17:13,42.805,6.029,CST-1368DR,5454,7601,14960,0.172,551
2021-06-24T07:20:15,42.805,6.029,CST-1368DR,5454,7602,14960,0.172,551
2021-06-24T07:23:16,42.805,6.029,CST-1368DR,5454,7601,14959,0.172,551
2021-06-24T07:26:18,42.805,6.029,CST-1368DR,5454,7599,14955,0.173,551
2021-06-24T07:29:19,42.805,6.029,CST-1368DR,5454,7601,14958,0.172,551
2021-06-24T07:32:21,42.805,6.029,CST-1368DR,5454,7602,14961,0.171,551
2021-06-24T07:35:22,42.805,6.029,CST-1368DR,5454,7599,14956,0.173,551
2021-06-24T07:38:24,42.805,6.029,CST-1368DR,5454,7602,14961,0.171,551
2021-06-24T07:41:26,42.805,6.029,CST-1368DR,5454,7601,14960,0.172,551
2021-06-24T07:44:27,42.805,6.029,CST-1368DR,5454,7601,14959,0.172,551
2021-06-24T07:47:29,42.805,6.029,CST-1368DR,5454,7601,14959,0.172,551
2021-06-24T07:50:30,42.805,6.029,CST-1368DR,5454,7602,14961,0.171,551
2021-06-24T07:53:32,42.805,6.029,CST-1368DR,5454,7601,14959,0.172,551
2021-06-24T07:56:33,42.805,6.029,CST-1368DR,5454,7598,14953,0.174,551
2021-06-24T07:59:35,42.805,6.029,CST-1368DR,5454,7601,14959,0.172,551
2021-06-24T08:02:37,42.805,6.029,CST-1368DR,5454,7602,14960,0.172,551
2021-06-24T08:05:38,42.805,6.029,CST-1368DR,5454,7601,14958,0.172,551
2021-06-24T08:08:40,42.805,6.029,CST-1368DR,5454,7601,14960,0.172,551
2021-06-24T08:11:41,42.805,6.029,CST-1368DR,5454,7601,14958,0.172,551
2021-06-24T08:14:43,42.805,6.029,CST-1368DR,5454,7598,14953,0.174,551
2021-06-24T08:17:45,42.805,6.029,CST-1368DR,5454,7601,14959,0.172,551
2021-06-24T08:20:46,42.805,6.029,CST-1368DR,5454,7599,14955,0.173,551
2021-06-24T08:23:48,42.805,6.029,CST-1368DR,5454,7600,14957,0.172,551
2021-06-24T08:26:49,42.805,6.029,CST-1368DR,5454,7600,14958,0.172,551
2021-06-24T08:29:51,42.805,6.029,CST-1368DR,5454,7602,14961,0.171,551
2021-06-24T08:32:52,42.805,6.029,CST-1368DR,5454,7601,14960,0.172,551
2021-06-24T08:35:54,42.805,6.029,CST-1368DR,5454,7601,14959,0.172,551
2021-06-24T08:38:56,42.805,6.029,CST-1368DR,5454,7601,14959,0.172,551
2021-06-24T08:41:57,42.805,6.029,CST-1368DR,5454,7600,14958,0.172,551
2021-06-24T08:44:59,42.805,6.029,CST-1368DR,5454,7601,14959,0.172,551
2021-06-24T08:48:00,42.805,6.029,CST-1368DR,5454,7601,14959,0.172,551
2021-06-24T08:51:02,42.805,6.029,CST-1368DR,5454,7601,14959,0.172,551
2021-06-24T08:54:04,42.805,6.029,CST-1368DR,5454,7601,14959,0.172,551
2021-06-24T08:57:05,42.805,6.029,CST-1368DR,5454,7600,14957,0.172,551
2021-06-24T09:00:07,42.805,6.029,CST-1368DR,5454,7601,14959,0.172,551
2021-06-24T09:03:08,42.805,6.029,CST-1368DR,5454,7601,14959,0.172,551
2021-06-24T09:06:10,42.805,6.029,CST-1368DR,5454,7599,14955,0.173,551
2021-06-24T09:09:11,42.805,6.029,CST-1368DR,5454,7600,14957,0.172,551
2021-06-24T09:12:13,42.805,6.029,CST-1368DR,5454,7599,14956,0.173,551
2021-06-24T09:15:15,42.805,6.029,CST-1368DR,5454,7597,14951,0.174,551
2021-06-24T09:18:16,42.805,6.029,CST-1368DR,5454,7598,14954,0.173,551
2021-06-24T09:21:18,42.805,6.029,CST-1368DR,5454,7600,14957,0.172,551
2021-06-24T09:24:19,42.805,6.029,CST-1368DR,5454,7601,14958,0.172,551
2021-06-24T09:27:21,42.805,6.029,CST-1368DR,5454,7601,14958,0.172,551
2021-06-24T09:30:22,42.805,6.029,CST-1368DR,5454,7600,14958,0.172,551
2021-06-24T09:33:24,42.805,6.029,CST-1368DR,5454,7601,14958,0.172,551
2021-06-24T09:36:26,42.805,6.029,CST-1368DR,5454,7600,14956,0.173,551
2021-06-24T09:39:27,42.805,6.029,CST-1368DR,5454,7596,14948,0.175,551
2021-06-24T09:42:29,42.805,6.029,CST-1368DR,5454,7599,14955,0.173,551
2021-06-24T09:45:30,42.805,6.029,CST-1368DR,5454,7599,14955,0.173,551
2021-06-24T09:48:32,42.805,6.029,CST-1368DR,5454,7599,14955,0.173,551
2021-06-24T09:51:34,42.805,6.029,CST-1368DR,5454,7600,14956,0.173,551
2021-06-24T09:54:35,42.805,6.029,CST-1368DR,5454,7600,14958,0.172,551
2021-06-24T09:57:37,42.805,6.029,CST-1368DR,5454,7601,14959,0.172,551
2021-06-24T10:00:38,42.805,6.029,CST-1368DR,5454,7601,14959,0.172,551
2021-06-24T10:03:40,42.805,6.029,CST-1368DR,5454,7599,14955,0.173,551
2021-06-24T10:06:41,42.805,6.029,CST-1368DR,5454,7599,14954,0.173,551
2021-06-24T10:09:43,42.805,6.029,CST-1368DR,5454,7599,14956,0.173,551
2021-06-24T10:12:45,42.805,6.029,CST-1368DR,5454,7600,14956,0.173,551
2021-06-24T10:15:46,42.805,6.029,CST-1368DR,5454,7601,14958,0.172,551
2021-06-24T10:18:48,42.805,6.029,CST-1368DR,5454,7600,14956,0.173,551
2021-06-24T10:21:49,42.805,6.029,CST-1368DR,5454,7599,14955,0.173,551
2021-06-24T10:24:51,42.805,6.029,CST-1368DR,5454,7601,14959,0.172,551
2021-06-24T10:27:52,42.805,6.029,CST-1368DR,5454,7601,14958,0.172,551
2021-06-24T10:30:54,42.805,6.029,CST-1368DR,5454,7601,14959,0.172,551
2021-06-24T10:33:56,42.805,6.029,CST-1368DR,5454,7599,14956,0.173,551
2021-06-24T10:36:57,42.805,6.029,CST-1368DR,5454,7600,14958,0.172,551
2021-06-24T10:39:59,42.805,6.029,CST-1368DR,5454,7599,14954,0.173,551
2021-06-24T10:43:00,42.805,6.029,CST-1368DR,5454,7600,14957,0.172,551
2021-06-24T10:46:02,42.805,6.029,CST-1368DR,5454,7601,14958,0.172,551
2021-06-24T10:49:04,42.805,6.029,CST-1368DR,5454,7600,14956,0.173,551
2021-06-24T10:52:05,42.805,6.029,CST-1368DR,5454,7600,14957,0.172,551
2021-06-24T10:55:07,42.805,6.029,CST-1368DR,5454,7600,14958,0.172,551
2021-06-24T10:58:08,42.805,6.029,CST-1368DR,5454,7600,14958,0.172,551
2021-06-24T11:01:10,42.805,6.029,CST-1368DR,5454,7599,14956,0.173,551
2021-06-24T11:04:11,42.805,6.029,CST-1368DR,5454,7599,14956,0.173,551
2021-06-24T11:07:13,42.805,6.029,CST-1368DR,5454,7600,14958,0.172,551
2021-06-24T11:10:15,42.805,6.029,CST-1368DR,5454,7599,14956,0.173,551
2021-06-24T11:13:16,42.805,6.029,CST-1368DR,5454,7600,14957,0.172,551
2021-06-24T11:16:18,42.805,6.029,CST-1368DR,5454,7600,14958,0.172,551
2021-06-24T11:19:19,42.805,6.029,CST-1368DR,5454,7600,14956,0.173,551
2021-06-24T11:22:21,42.805,6.029,CST-1368DR,5454,7598,14954,0.173,551
2021-06-24T11:25:22,42.805,6.029,CST-1368DR,5454,7599,14955,0.173,551
2021-06-24T11:28:24,42.805,6.029,CST-1368DR,5454,7600,14958,0.172,551
2021-06-24T11:31:26,42.805,6.029,CST-1368DR,5454,7599,14954,0.173,551
2021-06-24T11:34:27,42.805,6.029,CST-1368DR,5454,7598,14954,0.173,551
2021-06-24T11:37:29,42.805,6.029,CST-1368DR,5454,7600,14956,0.173,551
2021-06-24T11:40:30,42.805,6.029,CST-1368DR,5454,7598,14954,0.173,551
2021-06-24T11:43:32,42.805,6.029,CST-1368DR,5454,7597,14951,0.174,551
2021-06-24T11:46:34,42.805,6.029,CST-1368DR,5453,7597,14954,0.173,551
2021-06-24T11:49:35,42.805,6.029,CST-1368DR,5454,7601,14958,0.172,551
2021-06-24T11:52:37,42.805,6.029,CST-1368DR,5454,7600,14956,0.173,551
2021-06-24T11:55:38,42.805,6.029,CST-1368DR,5454,7597,14951,0.174,551
2021-06-24T11:58:40,42.805,6.029,CST-1368DR,5454,7598,14953,0.174,551
2021-06-24T12:01:41,42.805,6.029,CST-1368DR,5454,7600,14958,0.172,551
2021-06-24T12:04:43,42.805,6.029,CST-1368DR,5454,7600,14958,0.172,551
2021-06-24T12:07:45,42.805,6.029,CST-1368DR,5454,7600,14958,0.172,551
2021-06-24T12:10:46,42.805,6.029,CST-1368DR,5454,7601,14959,0.172,551
2021-06-24T12:13:48,42.805,6.029,CST-1368DR,5454,7600,14957,0.172,551
2021-06-24T12:16:49,42.805,6.029,CST-1368DR,5454,7600,14958,0.172,551
2021-06-24T12:19:51,42.805,6.029,CST-1368DR,5454,7601,14959,0.172,551
2021-06-24T12:22:53,42.805,6.029,CST-1368DR,5453,7601,14961,0.171,551
2021-06-24T12:25:54,42.805,6.029,CST-1368DR,5453,7597,14954,0.173,551
2021-06-24T12:28:56,42.805,6.029,CST-1368DR,5453,7601,14961,0.171,551
2021-06-24T12:31:57,42.805,6.029,CST-1368DR,5453,7598,14956,0.173,551
2021-06-24T12:34:59,42.805,6.029,CST-1368DR,5453,7601,14961,0.171,551
2021-06-24T12:38:00,42.805,6.029,CST-1368DR,5453,7600,14959,0.172,551
2021-06-24T12:41:02,42.805,6.029,CST-1368DR,5453,7599,14958,0.172,551
2021-06-24T12:44:04,42.805,6.029,CST-1368DR,5454,7599,14955,0.173,551
2021-06-24T12:47:05,42.805,6.029,CST-1368DR,5453,7600,14959,0.172,551
2021-06-24T12:50:07,42.805,6.029,CST-1368DR,5453,7599,14957,0.172,551
2021-06-24T12:53:08,42.805,6.029,CST-1368DR,5453,7597,14953,0.174,551
2021-06-24T12:56:10,42.805,6.029,CST-1368DR,5453,7598,14955,0.173,551
2021-06-24T12:59:11,42.805,6.029,CST-1368DR,5453,7601,14961,0.171,551
2021-06-24T13:02:13,42.805,6.029,CST-1368DR,5454,7600,14957,0.172,551
2021-06-24T13:05:15,42.805,6.029,CST-1368DR,5453,7601,14961,0.171,551
2021-06-24T13:08:16,42.805,6.029,CST-1368DR,5453,7599,14957,0.172,551
2021-06-24T13:11:18,42.805,6.029,CST-1368DR,5453,7599,14957,0.172,551
2021-06-24T13:14:19,42.805,6.029,CST-1368DR,5453,7600,14960,0.172,551
2021-06-24T13:17:21,42.805,6.029,CST-1368DR,5453,7600,14960,0.172,551
2021-06-24T13:20:23,42.805,6.029,CST-1368DR,5453,7600,14960,0.172,551
2021-06-24T13:23:24,42.805,6.029,CST-1368DR,5453,7598,14956,0.173,551
2021-06-24T13:26:26,42.805,6.029,CST-1368DR,5453,7601,14961,0.171,551
2021-06-24T13:29:27,42.805,6.029,CST-1368DR,5453,7601,14961,0.171,551
2021-06-24T13:32:29,42.805,6.029,CST-1368DR,5453,7601,14961,0.171,551
2021-06-24T13:35:30,42.805,6.029,CST-1368DR,5453,7598,14956,0.173,551
2021-06-24T13:38:32,42.805,6.029,CST-1368DR,5453,7600,14960,0.172,551
2021-06-24T13:41:34,42.805,6.029,CST-1368DR,5453,7599,14958,0.172,551
2021-06-24T13:44:35,42.805,6.029,CST-1368DR,5453,7600,14960,0.172,551
2021-06-24T13:47:37,42.805,6.029,CST-1368DR,5453,7601,14961,0.171,551
2021-06-24T13:50:38,42.805,6.029,CST-1368DR,5453,7598,14956,0.173,551
2021-06-24T13:53:40,42.805,6.029,CST-1368DR,5453,7600,14959,0.172,551
2021-06-24T13:56:42,42.805,6.029,CST-1368DR,5453,7601,14961,0.171,551
2021-06-24T13:59:43,42.805,6.029,CST-1368DR,5453,7599,14958,0.172,551
2021-06-24T14:02:45,42.805,6.029,CST-1368DR,5453,7598,14956,0.173,551
2021-06-24T14:05:46,42.805,6.029,CST-1368DR,5453,7596,14952,0.174,551
2021-06-24T14:08:48,42.805,6.029,CST-1368DR,5453,7598,14955,0.173,551
2021-06-24T14:11:49,42.805,6.029,CST-1368DR,5453,7599,14958,0.172,551
2021-06-24T14:14:51,42.805,6.029,CST-1368DR,5453,7600,14960,0.172,551
2021-06-24T14:17:53,42.805,6.029,CST-1368DR,5453,7600,14959,0.172,551
2021-06-24T14:20:54,42.805,6.029,CST-1368DR,5453,7599,14958,0.172,551
2021-06-24T14:23:56,42.805,6.029,CST-1368DR,5453,7599,14957,0.172,551
2021-06-24T14:26:57,42.805,6.029,CST-1368DR,5453,7599,14958,0.172,551
2021-06-24T14:29:59,42.805,6.029,CST-1368DR,5453,7601,14961,0.171,551
2021-06-24T14:33:00,42.805,6.029,CST-1368DR,5453,7598,14956,0.173,551
2021-06-24T14:36:02,42.805,6.029,CST-1368DR,5453,7599,14957,0.172,550
2021-06-24T14:39:04,42.805,6.029,CST-1368DR,5453,7600,14959,0.172,551
2021-06-24T14:42:05,42.805,6.029,CST-1368DR,5453,7599,14957,0.172,551
2021-06-24T14:45:07,42.805,6.029,CST-1368DR,5453,7599,14958,0.172,551
2021-06-24T14:48:08,42.805,6.029,CST-1368DR,5453,7601,14961,0.171,551
2021-06-24T14:51:10,42.805,6.029,CST-1368DR,5453,7601,14961,0.171,551
2021-06-24T14:54:12,42.805,6.029,CST-1368DR,5453,7599,14957,0.172,551
2021-06-24T14:57:13,42.805,6.029,CST-1368DR,5453,7600,14960,0.172,551
2021-06-24T15:00:15,42.805,6.029,CST-1368DR,5453,7600,14960,0.172,551
2021-06-24T15:03:16,42.805,6.029,CST-1368DR,5453,7598,14955,0.173,551
2021-06-24T15:06:18,42.805,6.029,CST-1368DR,5453,7601,14961,0.171,551
2021-06-24T15:09:19,42.805,6.029,CST-1368DR,5453,7601,14961,0.171,551
2021-06-24T15:12:21,42.805,6.029,CST-1368DR,5453,7599,14958,0.172,551
2021-06-24T15:15:23,42.805,6.029,CST-1368DR,5453,7599,14958,0.172,551
2021-06-24T15:18:24,42.805,6.029,CST-1368DR,5453,7601,14961,0.171,551
2021-06-24T15:21:26,42.805,6.029,CST-1368DR,5453,7598,14955,0.173,551
2021-06-24T15:24:27,42.805,6.029,CST-1368DR,5453,7598,14955,0.173,551
2021-06-24T15:27:29,42.805,6.029,CST-1368DR,5453,7600,14960,0.172,551
2021-06-24T15:30:30,42.805,6.029,CST-1368DR,5453,7599,14958,0.172,551
2021-06-24T15:33:32,42.805,6.029,CST-1368DR,5453,7598,14955,0.173,551
2021-06-24T15:36:34,42.805,6.029,CST-1368DR,5453,7597,14954,0.173,551
2021-06-24T15:39:35,42.805,6.029,CST-1368DR,5453,7600,14959,0.172,551
2021-06-24T15:42:37,42.805,6.029,CST-1368DR,5453,7600,14959,0.172,551
2021-06-24T15:45:38,42.805,6.029,CST-1368DR,5453,7599,14958,0.172,551
2021-06-24T15:48:40,42.805,6.029,CST-1368DR,5453,7599,14957,0.172,551
2021-06-24T15:51:42,42.805,6.029,CST-1368DR,5453,7599,14957,0.172,551
2021-06-24T15:54:43,42.805,6.029,CST-1368DR,5453,7599,14958,0.172,551
2021-06-24T15:57:45,42.805,6.029,CST-1368DR,5453,7599,14957,0.172,551
2021-06-24T16:00:46,42.805,6.029,CST-1368DR,5453,7600,14959,0.172,551
2021-06-24T16:03:48,42.805,6.029,CST-1368DR,5453,7600,14960,0.172,550
2021-06-24T16:06:49,42.805,6.029,CST-1368DR,5453,7598,14956,0.173,551
2021-06-24T16:09:51,42.805,6.029,CST-1368DR,5453,7596,14951,0.174,551
2021-06-24T16:12:53,42.805,6.029,CST-1368DR,5453,7599,14957,0.172,551
2021-06-24T16:15:54,42.805,6.029,CST-1368DR,5453,7599,14957,0.172,551
2021-06-24T16:18:56,42.805,6.029,CST-1368DR,5453,7599,14958,0.172,551
2021-06-24T16:21:57,42.805,6.029,CST-1368DR,5453,7597,14954,0.173,551
2021-06-24T16:24:59,42.805,6.029,CST-1368DR,5453,7599,14957,0.172,551
2021-06-24T16:28:01,42.805,6.029,CST-1368DR,5453,7596,14952,0.174,551
2021-06-24T16:31:02,42.805,6.029,CST-1368DR,5453,7599,14957,0.172,551
2021-06-24T16:34:04,42.805,6.029,CST-1368DR,5453,7600,14959,0.172,551
2021-06-24T16:37:05,42.805,6.029,CST-1368DR,5453,7599,14958,0.172,551
2021-06-24T16:40:07,42.805,6.029,CST-1368DR,5453,7599,14958,0.172,551
2021-06-24T16:43:08,42.805,6.029,CST-1368DR,5453,7601,14961,0.171,551
2021-06-24T16:46:10,42.805,6.029,CST-1368DR,5453,7598,14956,0.173,551
2021-06-24T16:49:12,42.805,6.029,CST-1368DR,5453,7599,14958,0.172,551
2021-06-24T16:52:13,42.805,6.029,CST-1368DR,5453,7594,14948,0.175,551
2021-06-24T16:55:15,42.805,6.029,CST-1368DR,5453,7600,14960,0.172,551